Location: ????????
(55.0559°N, 39.1270°E)
Time: 00:50:21
(UTC+00:00)

SWARM A - Pass Details

Date: 15 November 2025
Orbit: 425 x 428 km, 87.3° (Epoch: 12 December)

Event Time Altitude Azimuth Distance (km) Brightness Sun altitude
Rises 02:55:21 0° 180° (S) 2,404 8.1 -16.9°
Reaches altitude 10° 02:57:23 10° 180° (S) 1,541 7.1 -16.6°
Maximum altitude 03:00:43 86° 91° (E) 443 4.2 -16.1°
Drops below altitude 10° 03:04:05 10° 4° (N) 1,552 7.0 -15.7°
Sets 03:06:08 0° 4° (N) 2,425 8.0 -15.4°
